• In Uzbekistan
  • List of Countries
  • For 7 days
  • Water Temperature
  • Satellite Maps
  • Weather Map
  • Weather Widgets
  • user-avatar
    Login

    Hourly Weather Adelaide

    Today, 28 March, Tuesday

    Time Temperature Precipitation Wind Pressure Humidity
    00:00 +17°C° 0 mm 3 mps 758 mmHg 72%
    01:00 +17°C° 0 mm 2 mps 758 mmHg 74%
    02:00 +17°C° 0 mm 2 mps 758 mmHg 75%
    03:00 +17°C° 0 mm 2 mps 757 mmHg 78%
    04:00 +16°C° 0 mm 2 mps 758 mmHg 80%
    05:00 +16°C° 0 mm 2 mps 758 mmHg 81%
    06:00 +16°C° 0 mm 2 mps 758 mmHg 82%
    07:00 +18°C° 0 mm 2 mps 758 mmHg 74%
    08:00 +19°C° 0 mm 2 mps 758 mmHg 65%
    09:00 +21°C° 0 mm 2 mps 758 mmHg 57%
    10:00 +23°C° 0 mm 2 mps 758 mmHg 53%
    11:00 +24°C° 0 mm 2 mps 757 mmHg 49%
    12:00 +25°C° 0 mm 2 mps 757 mmHg 45%
    13:00 +25°C° 0 mm 2 mps 757 mmHg 44%
    14:00 +26°C° 0 mm 2 mps 756 mmHg 43%
    15:00 +26°C° 0 mm 2 mps 755 mmHg 42%
    16:00 +24°C° 0 mm 2 mps 755 mmHg 48%
    17:00 +21°C° 0 mm 2 mps 755 mmHg 55%
    18:00 +20°C° 0 mm 1 mps 755 mmHg 62%
    19:00 +19°C° 0 mm 2 mps 755 mmHg 65%
    20:00 +18°C° 0 mm 2 mps 756 mmHg 68%
    21:00 +18°C° 0 mm 2 mps 756 mmHg 71%
    22:00 +18°C° 0 mm 2 mps 756 mmHg 73%
    23:00 +18°C° 0 mm 2 mps 755 mmHg 76%

    Tomorrow, 29 March, Wednesday

    Time Temperature Precipitation Wind Pressure Humidity
    00:00 +18°C° 0 mm 2 mps 755 mmHg 78%
    01:00 +18°C° 0 mm 3 mps 755 mmHg 80%
    02:00 +17°C° 0 mm 3 mps 755 mmHg 83%
    03:00 +17°C° 0 mm 3 mps 754 mmHg 85%
    04:00 +17°C° 0 mm 3 mps 754 mmHg 85%
    05:00 +18°C° 0 mm 3 mps 754 mmHg 84%
    06:00 +18°C° 0 mm 4 mps 754 mmHg 84%
    07:00 +19°C° 0 mm 4 mps 754 mmHg 78%
    08:00 +20°C° 0 mm 5 mps 755 mmHg 72%
    09:00 +21°C° 0 mm 5 mps 755 mmHg 67%
    10:00 +21°C° 0.2 mm 5 mps 755 mmHg 67%
    11:00 +21°C° 0.2 mm 6 mps 755 mmHg 67%
    12:00 +22°C° 0.2 mm 6 mps 755 mmHg 67%
    13:00 +20°C° 0.3 mm 6 mps 755 mmHg 69%
    14:00 +19°C° 0.3 mm 6 mps 755 mmHg 72%
    15:00 +17°C° 0.3 mm 7 mps 755 mmHg 75%
    16:00 +17°C° 0.1 mm 6 mps 756 mmHg 73%
    17:00 +16°C° 0.1 mm 6 mps 757 mmHg 70%
    18:00 +16°C° 0.1 mm 6 mps 757 mmHg 67%
    19:00 +15°C° 0.1 mm 6 mps 758 mmHg 65%
    20:00 +15°C° 0.1 mm 5 mps 759 mmHg 62%
    21:00 +14°C° 0.1 mm 5 mps 759 mmHg 60%
    22:00 +14°C° 0 mm 5 mps 760 mmHg 60%
    23:00 +14°C° 0 mm 5 mps 760 mmHg 61%

    Day after tomorrow, 30 March, Thursday

    Time Temperature Precipitation Wind Pressure Humidity
    00:00 +13°C° 0 mm 4 mps 760 mmHg 61%
    01:00 +13°C° 0 mm 4 mps 760 mmHg 62%
    02:00 +13°C° 0 mm 4 mps 760 mmHg 63%
    03:00 +13°C° 0 mm 4 mps 761 mmHg 63%
    04:00 +13°C° 0 mm 4 mps 761 mmHg 64%
    05:00 +12°C° 0 mm 4 mps 761 mmHg 66%
    06:00 +12°C° 0 mm 4 mps 762 mmHg 67%
    07:00 +14°C° 0 mm 5 mps 762 mmHg 61%
    08:00 +15°C° 0 mm 5 mps 763 mmHg 56%
    09:00 +16°C° 0 mm 5 mps 763 mmHg 51%
    10:00 +17°C° 0 mm 5 mps 763 mmHg 49%
    11:00 +17°C° 0 mm 5 mps 763 mmHg 47%
    12:00 +17°C° 0 mm 5 mps 763 mmHg 45%
    13:00 +17°C° 0 mm 5 mps 763 mmHg 45%
    14:00 +17°C° 0 mm 5 mps 763 mmHg 46%
    15:00 +17°C° 0 mm 5 mps 763 mmHg 46%
    16:00 +16°C° 0 mm 5 mps 763 mmHg 50%
    17:00 +15°C° 0 mm 4 mps 763 mmHg 55%
    18:00 +14°C° 0 mm 4 mps 763 mmHg 59%
    19:00 +14°C° 0 mm 4 mps 764 mmHg 62%
    20:00 +13°C° 0 mm 3 mps 764 mmHg 65%
    21:00 +13°C° 0 mm 3 mps 765 mmHg 68%
    22:00 +12°C° 0 mm 3 mps 765 mmHg 70%
    23:00 +13°C° 0 mm 2 mps 764 mmHg 72%

    31 March, Friday

    Time Temperature Precipitation Wind Pressure Humidity
    00:00 +12°C° 0 mm 2 mps 764 mmHg 74%
    01:00 +12°C° 0 mm 2 mps 764 mmHg 76%
    02:00 +12°C° 0 mm 2 mps 764 mmHg 77%
    03:00 +11°C° 0 mm 1 mps 764 mmHg 79%
    04:00 +11°C° 0 mm 1 mps 764 mmHg 81%
    05:00 +11°C° 0 mm 1 mps 764 mmHg 83%
    06:00 +10°C° 0 mm 1 mps 764 mmHg 84%
    07:00 +13°C° 0 mm 1 mps 764 mmHg 74%
    08:00 +15°C° 0 mm 1 mps 764 mmHg 63%
    09:00 +19°C° 0 mm 1 mps 765 mmHg 53%
    10:00 +19°C° 0 mm 1 mps 764 mmHg 52%
    11:00 +18°C° 0 mm 2 mps 764 mmHg 51%
    12:00 +18°C° 0 mm 2 mps 763 mmHg 51%
    13:00 +19°C° 0 mm 3 mps 763 mmHg 50%
    14:00 +19°C° 0 mm 3 mps 763 mmHg 50%
    15:00 +19°C° 0 mm 3 mps 762 mmHg 50%
    16:00 +18°C° 0 mm 3 mps 762 mmHg 54%
    17:00 +17°C° 0 mm 3 mps 763 mmHg 59%
    18:00 +16°C° 0 mm 2 mps 763 mmHg 63%
    19:00 +16°C° 0 mm 2 mps 763 mmHg 65%
    20:00 +15°C° 0 mm 2 mps 764 mmHg 67%
    21:00 +15°C° 0 mm 2 mps 764 mmHg 69%
    22:00 +15°C° 0 mm 2 mps 764 mmHg 71%
    23:00 +14°C° 0 mm 2 mps 763 mmHg 73%

    1 April, Saturday

    Time Temperature Precipitation Wind Pressure Humidity
    00:00 +14°C° 0 mm 2 mps 763 mmHg 75%
    01:00 +14°C° 0 mm 2 mps 763 mmHg 76%
    02:00 +14°C° 0 mm 2 mps 763 mmHg 78%
    03:00 +14°C° 0 mm 2 mps 763 mmHg 79%
    04:00 +14°C° 0 mm 2 mps 763 mmHg 81%
    05:00 +14°C° 0 mm 2 mps 764 mmHg 83%
    06:00 +14°C° 0 mm 2 mps 764 mmHg 84%
    07:00 +16°C° 0.2 mm 3 mps 765 mmHg 79%
    08:00 +17°C° 0.2 mm 3 mps 765 mmHg 73%
    09:00 +19°C° 0.2 mm 4 mps 765 mmHg 67%
    10:00 +19°C° 0.1 mm 4 mps 765 mmHg 66%
    11:00 +19°C° 0.1 mm 4 mps 765 mmHg 64%
    12:00 +19°C° 0.1 mm 4 mps 765 mmHg 62%
    13:00 +19°C° 0 mm 4 mps 765 mmHg 59%
    14:00 +20°C° 0 mm 5 mps 765 mmHg 56%
    15:00 +20°C° 0 mm 5 mps 765 mmHg 53%
    16:00 +18°C° 0 mm 4 mps 765 mmHg 57%
    17:00 +17°C° 0 mm 4 mps 766 mmHg 60%
    18:00 +15°C° 0 mm 4 mps 766 mmHg 64%
    19:00 +14°C° 0 mm 4 mps 767 mmHg 67%
    20:00 +14°C° 0 mm 4 mps 767 mmHg 70%
    21:00 +13°C° 0 mm 4 mps 767 mmHg 72%
    22:00 +13°C° 0 mm 3 mps 767 mmHg 73%
    23:00 +13°C° 0 mm 3 mps 768 mmHg 74%

    2 April, Sunday

    Time Temperature Precipitation Wind Pressure Humidity
    00:00 +12°C° 0 mm 3 mps 768 mmHg 74%
    01:00 +12°C° 0 mm 3 mps 768 mmHg 74%
    02:00 +12°C° 0 mm 3 mps 768 mmHg 74%
    03:00 +11°C° 0 mm 3 mps 768 mmHg 74%
    04:00 +11°C° 0 mm 3 mps 768 mmHg 75%
    05:00 +11°C° 0 mm 3 mps 769 mmHg 75%
    06:00 +11°C° 0 mm 3 mps 769 mmHg 75%
    07:00 +12°C° 0 mm 4 mps 770 mmHg 67%
    08:00 +14°C° 0 mm 4 mps 770 mmHg 59%
    09:00 +15°C° 0 mm 4 mps 770 mmHg 51%
    10:00 +17°C° 0 mm 4 mps 770 mmHg 47%
    11:00 +19°C° 0 mm 3 mps 770 mmHg 42%
    12:00 +20°C° 0 mm 3 mps 769 mmHg 38%
    13:00 +20°C° 0 mm 3 mps 769 mmHg 37%
    14:00 +20°C° 0 mm 4 mps 768 mmHg 37%
    15:00 +21°C° 0 mm 4 mps 768 mmHg 37%
    16:00 +19°C° 0 mm 4 mps 768 mmHg 43%
    17:00 +18°C° 0 mm 4 mps 768 mmHg 49%
    18:00 +15°C° 0 mm 4 mps 769 mmHg 56%
    19:00 +15°C° 0 mm 4 mps 769 mmHg 60%
    20:00 +15°C° 0 mm 4 mps 769 mmHg 64%
    21:00 +14°C° 0 mm 4 mps 769 mmHg 68%
    22:00 +14°C° 0 mm 4 mps 769 mmHg 66%
    23:00 +14°C° 0 mm 4 mps 769 mmHg 65%
    Show more